Weather History for KCWF - September, 2013

Change the Weather History Date:

Friday, September 13, 2013

  Actual Average Record
Temperature  
Mean Temperature 84 °F -  
Max Temperature 96 °F 86 °F 98 °F (2005)
Min Temperature 73 °F 72 °F 66 °F (2014)
Cooling Degree Days 20    
Growing Degree Days 34 (Base 50)    
Moisture  
Dew Point 71 °F    
Average Humidity 80    
Maximum Humidity 100    
Minimum Humidity 30    
Precipitation  
Precipitation 0.00 in - - ()
Sea Level Pressure  
Sea Level Pressure 29.91 in    
Wind  
Wind Speed 2 mph (East)    
Max Wind Speed 17 mph    
Max Gust Speed 24 mph    
Visibility 10 miles    
Events Thunderstorm    
Averages and records for this station are not official NWS values.
T = Trace of Precipitation, MM = Missing Value Source: NWS Daily Summary

Daily Weather History Graph

Daily Weather History Graph

Search for Another Location

Airport or City:

Trip Planner

Search our weather history database for the weather conditions in past years. The results will help you decide how hot, cold, wet, or windy it might be!

Date:

Astronomy

Sep. 13, 2013 Rise Set
Actual Time 6:56 AM CDT 7:20 PM CDT
Civil Twilight 6:32 AM CDT 7:44 PM CDT
Nautical Twilight 6:03 AM CDT 8:12 PM CDT
Astronomical Twilight 5:35 AM CDT 8:40 PM CDT
Moon 2:52 PM CDT (9/13) 12:44 AM CDT (9/13)
Length of Visible Light 13h 12m
Length of Day
12h 23m
First Quarter, 61% of the Moon is Illuminated
Sep 13
First Quarter
Sep 19
Full
Sep 26
Last Quarter
Oct 4
New
Oct 11
First Quarter

Hourly Weather History & Observations

Time (CDT) Temp. Heat Index Dew Point Humidity Pressure Visibility Wind Dir Wind Speed Gust Speed Precip Events Conditions
12:15 AM 75.7 °F - 74.3 °F 95% 29.96 in 10.0 mi Calm Calm - N/A   Clear
12:35 AM 75.6 °F - 74.8 °F 98% 29.95 in 10.0 mi Calm Calm - N/A   Clear
12:55 AM 75.2 °F - 75.2 °F 100% 29.95 in 10.0 mi Calm Calm - N/A   Clear
1:15 AM 75.4 °F - 74.8 °F 98% 29.95 in 10.0 mi Calm Calm - N/A   Clear
1:35 AM 74.3 °F - 74.3 °F 100% 29.95 in 10.0 mi Calm Calm - N/A   Clear
1:55 AM 74.1 °F - 74.1 °F 100% 29.95 in 10.0 mi Calm Calm - N/A   Clear
2:15 AM 74.8 °F - 74.7 °F 99% 29.94 in 10.0 mi Calm Calm - N/A   Clear
2:35 AM 75.2 °F - 75.2 °F 100% 29.94 in 10.0 mi Calm Calm - N/A   Clear
2:55 AM 75.2 °F - 75.2 °F 100% 29.93 in 10.0 mi Calm Calm - N/A   Clear
3:15 AM 75.2 °F - 75.2 °F 100% 29.93 in 10.0 mi Calm Calm - N/A   Clear
3:35 AM 74.5 °F - 74.5 °F 100% 29.92 in 10.0 mi Calm Calm - N/A   Clear
3:55 AM 74.7 °F - 74.7 °F 100% 29.92 in 10.0 mi Calm Calm - N/A   Clear
4:15 AM 74.5 °F - 74.5 °F 100% 29.92 in 10.0 mi Calm Calm - N/A   Clear
4:35 AM 74.3 °F - 74.3 °F 100% 29.92 in 10.0 mi Calm Calm - N/A   Clear
4:55 AM 74.7 °F - 74.7 °F 100% 29.92 in 10.0 mi Calm Calm - N/A   Clear
5:15 AM 74.5 °F - 74.5 °F 100% 29.92 in 10.0 mi Calm Calm - N/A   Mostly Cloudy
5:35 AM 74.3 °F - 74.3 °F 100% 29.93 in 10.0 mi Calm Calm - N/A   Mostly Cloudy
5:55 AM 74.3 °F - 74.3 °F 100% 29.93 in 10.0 mi Calm Calm - N/A   Scattered Clouds
6:00 AM 73.4 °F - 73.4 °F 100% 29.93 in 10.0 mi Calm Calm - N/A   Scattered Clouds
6:15 AM 73.9 °F - 73.9 °F 100% 29.94 in 10.0 mi Calm Calm - N/A   Scattered Clouds
6:35 AM 73.9 °F - 73.9 °F 100% 29.94 in 10.0 mi NNW 4.6 mph - N/A   Scattered Clouds
6:50 AM 73.4 °F - 73.4 °F 100% 29.94 in 10.0 mi Calm Calm - N/A   Scattered Clouds
6:55 AM 73.6 °F - 73.6 °F 100% 29.94 in 10.0 mi North 3.5 mph - N/A   Clear
7:50 AM 75.2 °F - 75.2 °F 100% 29.94 in 10.0 mi Calm Calm - N/A   Mostly Cloudy
8:55 AM 80.6 °F 84.6 °F 71.6 °F 74% 29.94 in 10.0 mi Variable 3.5 mph - N/A   Scattered Clouds
9:50 AM 84.2 °F 89.6 °F 71.6 °F 66% 29.94 in 10.0 mi NW 4.6 mph - N/A   Scattered Clouds
10:50 AM 87.8 °F 92.6 °F 69.8 °F 55% 29.95 in 10.0 mi North 6.9 mph - N/A   Clear
11:50 AM 91.4 °F 93.2 °F 64.4 °F 41% 29.93 in 10.0 mi NNW 8.1 mph - N/A   Scattered Clouds
12:56 PM 93.2 °F 94.1 °F 62.6 °F 36% 29.91 in 10.0 mi ENE 5.8 mph - N/A   Scattered Clouds
1:59 PM 95.0 °F 95.2 °F 60.8 °F 32% 29.87 in 10.0 mi ENE 10.4 mph - N/A   Scattered Clouds
2:47 PM 95.0 °F 95.2 °F 60.8 °F 32% 29.85 in 10.0 mi NE 4.6 mph - N/A   Scattered Clouds
3:50 PM 96.8 °F 97.1 °F 60.8 °F 30% 29.82 in 10.0 mi SE 11.5 mph - N/A   Scattered Clouds
4:52 PM 95.0 °F 95.2 °F 60.8 °F 32% 29.81 in 10.0 mi SSE 3.5 mph - N/A   Scattered Clouds
5:51 PM 91.4 °F 96.8 °F 69.8 °F 49% 29.81 in 10.0 mi South 13.8 mph 17.3 mph N/A   Scattered Clouds
6:45 PM 87.8 °F 93.8 °F 71.6 °F 58% 29.83 in 10.0 mi South 13.8 mph - N/A   Scattered Clouds
7:45 PM 84.2 °F 88.4 °F 69.8 °F 62% 29.83 in 10.0 mi SSW 9.2 mph - N/A   Scattered Clouds
8:11 PM 82.4 °F 86.3 °F 69.8 °F 66% 29.84 in 10.0 mi South 6.9 mph - N/A Thunderstorm Thunderstorm
8:45 PM 82.4 °F 86.3 °F 69.8 °F 66% 29.84 in 10.0 mi South 6.9 mph - N/A Thunderstorm Thunderstorm
9:50 PM 82.4 °F 86.3 °F 69.8 °F 66% 29.91 in 10.0 mi NE 17.3 mph 24.2 mph N/A Thunderstorm Thunderstorm
11:15 PM 78.8 °F - 69.1 °F 72% 29.89 in 10.0 mi Calm Calm - N/A   Mostly Cloudy
11:35 PM 77.5 °F - 69.3 °F 76% 29.89 in 10.0 mi Calm Calm - N/A   Scattered Clouds
11:55 PM 78.1 °F - 68.9 °F 73% 29.89 in 10.0 mi Calm Calm - N/A   Clear